Location: Mapua
(41.2500°S, 173.1000°E)
Time: 18:18:33
(UTC+13:00)

Tiangong 1 - Visible Passes

Search period start: 18 December 2017 00:00
Search period end: 28 December 2017 00:00
Orbit: 274 x 301 km, 42.8° (Epoch: 17 December)

Date Brightness Start Highest point End Pass type
(mag) Time Alt. Az. Time Alt. Az. Time Alt. Az.
18 Dec 1.0 23:00:27 10° W 23:02:59 56° S 23:03:10 54° SSE visible
19 Dec 0.7 21:29:37 10° W 21:32:11 76° S 21:34:44 10° ESE visible
19 Dec 0.9 23:04:20 10° WSW 23:06:46 61° S 23:06:46 61° S visible
20 Dec 1.0 21:33:24 10° W 21:35:58 60° S 21:38:29 10° ESE visible
20 Dec 1.1 23:08:05 10° WSW 23:10:09 53° WSW 23:10:09 53° WSW visible
21 Dec 1.1 21:37:06 10° W 21:39:38 57° S 21:42:10 10° E visible
21 Dec 1.8 23:11:43 10° W 23:13:23 35° W 23:13:23 35° W visible
22 Dec 0.9 21:40:39 10° WSW 21:43:13 63° S 21:45:45 10° E visible
22 Dec 2.6 23:15:19 10° W 23:16:29 21° W 23:16:29 21° W visible
23 Dec 0.5 21:44:05 10° WSW 21:46:40 83° SSE 21:49:12 10° E visible
23 Dec 3.3 23:18:59 10° W 23:19:29 13° WNW 23:19:29 13° WNW visible
24 Dec 0.6 21:47:25 10° W 21:49:58 64° NNW 21:52:12 12° ENE visible
25 Dec 1.4 21:50:41 10° W 21:53:07 37° NNW 21:55:02 14° NE visible
26 Dec 2.3 21:54:02 10° W 21:56:06 21° NNW 21:57:47 12° NNE visible
27 Dec 3.1 21:57:48 10° WNW 21:58:54 12° NNW 22:00:00 10° N visible
